Language: 


Des rapports , des résumés tant et plus, au choix de chacun....


Données Historiques de Météogheer
Journalier Rapport pour Janvier 15, 2018 Unitée:  Impériale    Métrique   Les deux
Suivant Jour »
Journalier Hebdomadaire Mensuel Annuel Sur mesure
  Max: Min: Moyenne:
Température: 48.7 °F 31.6 °F 41.4 °F
Point de rosée: 48.2 °F 30.2 °F 41 °F
Humidité: 98% 90% 97%
Vent: 19.7mph 0mph 8.5mph
Rafales: 26.8mph - -
Vent- - SW
Pression: 30 in 29.3 in -
Pluie: 0.34 in    
Historical Graphs
 
 
Données tabulaires pour Janvier 15, 2018
Heure Température Point de rosée Pression Vent Vent Rafales Humidité Pluie Taux (Horaire) Conditions
00:16 32.4 °F 32 °F 30 in Calm     98% 0 in
00:25 32 °F 30.2 °F 30 in Calm     98% 0 in
00:31 31.6 °F 30.2 °F 30 in Calm     98% 0 in
00:38 31.6 °F 30.2 °F 30 in South 3.1 mph 3.1 mph 98% 0 in
00:48 32 °F 30.2 °F 30 in Calm   3.6 mph 98% 0 in
01:14 33.3 °F 33.8 °F 30 in SSW 2.9 mph 5.6 mph 98% 0 in
01:21 33.6 °F 33.8 °F 30 in South 3.6 mph 4.3 mph 98% 0 in
01:31 33.8 °F 33.8 °F 30 in SSW 2.7 mph 5.4 mph 98% 0 in
01:36 34 °F 33.8 °F 30 in SSW 3.8 mph 4.5 mph 98% 0 in
01:49 34 °F 33.8 °F 30 in SSW 1.1 mph 4.5 mph 98% 0 in
01:54 34 °F 33.8 °F 30 in Calm   5.6 mph 98% 0 in
02:02 34 °F 33.8 °F 30 in Calm   3.8 mph 98% 0 in
02:09 34 °F 33.8 °F 30 in SSW 4.3 mph 4.3 mph 98% 0 in
02:18 34 °F 33.8 °F 29.9 in SSW 4 mph 5.4 mph 98% 0 in
02:23 34 °F 33.8 °F 29.9 in Calm   5.6 mph 98% 0 in
02:32 34 °F 33.8 °F 30 in South 2.9 mph 4.7 mph 98% 0 in
02:51 34 °F 33.8 °F 29.9 in Calm   4 mph 98% 0 in
02:56 34 °F 33.8 °F 29.9 in SSW 3.4 mph 4.3 mph 98% 0 in
03:11 34 °F 33.8 °F 29.9 in SSW 7.2 mph 8.1 mph 98% 0 in
03:25 34 °F 33.8 °F 29.9 in SSW 5.6 mph 8.1 mph 98% 0 in
03:31 34 °F 33.8 °F 29.9 in SSW 7.2 mph 9.8 mph 98% 0 in
03:37 34 °F 33.8 °F 29.9 in South 6.3 mph 8.1 mph 98% 0 in
03:46 34 °F 33.8 °F 29.9 in WSW 13 mph 14.1 mph 98% 0 in
04:07 34 °F 33.8 °F 29.9 in SW 8.7 mph 13 mph 98% 0 in
04:14 34 °F 33.8 °F 29.9 in SSW 6.5 mph 13.2 mph 98% 0 in
04:39 34 °F 33.8 °F 29.9 in SSW 9.8 mph 10.7 mph 98% 0 in
04:49 34 °F 33.8 °F 29.9 in SSW 9.2 mph 12.8 mph 98% 0 in
04:55 34 °F 33.8 °F 29.9 in SW 7.4 mph 12.8 mph 98% 0 in
05:05 34 °F 33.8 °F 29.9 in SW 5.6 mph 11 mph 98% 0 in
05:10 34 °F 33.8 °F 29.9 in SSW 19.7 mph 19.7 mph 98% 0 in
05:15 34 °F 33.8 °F 29.9 in SSW 4.3 mph 19.7 mph 98% 0 in
05:20 34 °F 33.8 °F 29.9 in South 4.9 mph 7.6 mph 98% 0 in
05:25 34 °F 33.8 °F 29.9 in South 4.9 mph 8.7 mph 98% 0 in
05:45 34 °F 33.8 °F 29.9 in SSW 8.1 mph 8.7 mph 98% 0 in
05:54 34 °F 33.8 °F 29.9 in SSW 6.7 mph 11 mph 98% 0 in
06:00 34 °F 33.8 °F 29.9 in South 6 mph 11 mph 98% 0 in
06:16 34 °F 33.8 °F 29.9 in SSW 7.6 mph 12.3 mph 98% 0 in
06:21 34 °F 33.8 °F 29.9 in SSW 5.8 mph 12.3 mph 98% 0 in
06:26 34 °F 33.8 °F 29.9 in SSW 5.6 mph 13 mph 98% 0 in
06:34 34 °F 33.8 °F 29.9 in South 5.8 mph 13 mph 98% 0 in
06:53 34 °F 33.8 °F 29.9 in SSW 6.5 mph 11.4 mph 98% 0 in
07:11 34 °F 33.8 °F 29.8 in SSW 6.5 mph 10.7 mph 98% 0 in
07:16 34 °F 33.8 °F 29.8 in South 3.1 mph 10.1 mph 98% 0 in
07:29 34 °F 33.8 °F 29.8 in SW 11 mph 11 mph 98% 0 in
07:34 34 °F 33.8 °F 29.8 in South 7.4 mph 11 mph 98% 0 in
07:43 34 °F 33.8 °F 29.8 in South 6.5 mph 11 mph 98% 0 in
07:54 34 °F 33.8 °F 29.8 in SSW 6.5 mph 10.7 mph 98% 0 in
08:00 34 °F 33.8 °F 29.8 in SW 7.8 mph 10.5 mph 98% 0 in
08:07 34 °F 33.8 °F 29.8 in SSW 6 mph 13.2 mph 98% 0 in
08:18 34 °F 33.8 °F 29.8 in South 8.7 mph 13 mph 98% 0 in
08:26 34 °F 33.8 °F 29.8 in SSE 7.4 mph 12.5 mph 98% 0 in
08:34 34 °F 33.8 °F 29.8 in SSW 6.5 mph 13 mph 98% 0 in
08:51 41.7 °F 42.8 °F 29.7 in SSW 5.4 mph 13.2 mph 98% 0 in
08:56 41.7 °F 42.8 °F 29.7 in SSW 7.2 mph 13.2 mph 98% 0 in
09:04 41.9 °F 42.8 °F 29.7 in SSW 8.1 mph 15.4 mph 98% 0 in
09:10 42.1 °F 42.8 °F 29.7 in SW 7.6 mph 15.4 mph 98% 0 in
09:15 42.3 °F 42.8 °F 29.7 in SSW 9.4 mph 15.2 mph 98% 0 in
09:22 42.3 °F 42.8 °F 29.7 in SW 7.6 mph 13.2 mph 98% 0 in
10:02 43.3 °F 42.8 °F 29.7 in SSW 12.8 mph 14.8 mph 96% 0 in
10:11 43.3 °F 42.8 °F 29.7 in SSW 10.5 mph 17.4 mph 96% 0 in
10:29 43.5 °F 42.8 °F 29.7 in South 10.1 mph 17.2 mph 94% 0 in
10:39 43.5 °F 42.8 °F 29.7 in SSW 15.2 mph 15.7 mph 94% 0 in
10:44 43.5 °F 42.8 °F 29.7 in SSW 8.9 mph 17.4 mph 94% 0 in
11:06 43.5 °F 42.8 °F 29.6 in SSW 12.8 mph 16.8 mph 94% 0.02 in
11:25 43.5 °F 42.8 °F 29.7 in SSW 8.1 mph 18.6 mph 94% 0.03 in
11:36 43.5 °F 42.8 °F 29.6 in SSW 12.1 mph 21 mph 94% 0.03 in
11:47 43.3 °F 42.8 °F 29.6 in SSW 6.7 mph 22.1 mph 98% 0.02 in
11:59 43.3 °F 42.8 °F 29.6 in SW 16.8 mph 20.4 mph 98% 0.01 in
12:05 43.3 °F 42.8 °F 29.6 in SSW 16.1 mph 24.2 mph 98% 0.01 in
12:11 43.3 °F 42.8 °F 29.6 in SW 8.9 mph 16.8 mph 98% 0.01 in
12:21 43.3 °F 42.8 °F 29.6 in SW 9.8 mph 22.1 mph 98% 0 in
12:32 43.3 °F 42.8 °F 29.6 in SSW 15.2 mph 26.8 mph 98% 0 in
12:42 43.3 °F 42.8 °F 29.6 in SSW 7.6 mph 19.5 mph 98% 0 in
12:52 43.3 °F 42.8 °F 29.6 in South 16.8 mph 22.8 mph 98% 0.01 in
12:59 44.1 °F 44.6 °F 29.6 in South 11 mph 18.8 mph 98% 0.01 in
13:04 44.1 °F 44.6 °F 29.6 in SW 10.3 mph 22.8 mph 98% 0.01 in
13:14 44.1 °F 44.6 °F 29.5 in South 10.3 mph 21.5 mph 98% 0.01 in
13:21 43.9 °F 44.6 °F 29.5 in SSW 11 mph 17.4 mph 98% 0.01 in
13:30 43.9 °F 44.6 °F 29.5 in SSW 10.1 mph 23 mph 98% 0.01 in
13:35 44.1 °F 44.6 °F 29.5 in South 8.5 mph 23.9 mph 98% 0.01 in
13:40 44.1 °F 44.6 °F 29.5 in South 9.8 mph 23.9 mph 98% 0.01 in
13:58 44.1 °F 44.6 °F 29.5 in SSW 11.4 mph 19.9 mph 98% 0.01 in
14:17 44.4 °F 44.6 °F 29.5 in South 12.8 mph 19 mph 98% 0.04 in
14:29 44.4 °F 44.6 °F 29.4 in SSW 17.2 mph 22.6 mph 98% 0.05 in
14:37 44.6 °F 44.6 °F 29.4 in SW 12.5 mph 25.1 mph 98% 0.06 in
14:42 44.6 °F 44.6 °F 29.4 in SSW 14.8 mph 25.1 mph 98% 0.07 in
14:52 44.8 °F 44.6 °F 29.4 in SSW 13.2 mph 24.2 mph 98% 0.07 in
15:01 44.8 °F 44.6 °F 29.4 in South 10.3 mph 23.5 mph 98% 0.09 in
15:06 44.8 °F 44.6 °F 29.4 in South 10.7 mph 21.9 mph 98% 0.1 in
15:19 44.8 °F 44.6 °F 29.4 in SSW 14.3 mph 17.7 mph 98% 0.09 in
15:24 44.8 °F 44.6 °F 29.4 in SSW 12.8 mph 21.9 mph 98% 0.07 in
15:31 44.8 °F 44.6 °F 29.4 in SSW 11.9 mph 21.9 mph 98% 0.07 in
15:40 44.8 °F 44.6 °F 29.4 in SSW 8.7 mph 22.6 mph 98% 0.09 in
15:57 45 °F 44.6 °F 29.4 in SSW 13.2 mph 19.7 mph 98% 0.09 in
16:03 45 °F 44.6 °F 29.4 in SSW 13 mph 23.5 mph 98% 0.07 in
16:12 45.1 °F 44.6 °F 29.4 in SSW 10.5 mph 17.4 mph 98% 0.07 in
16:18 45.3 °F 44.6 °F 29.4 in SSW 17.9 mph 19.9 mph 98% 0.06 in
16:25 45.5 °F 46.4 °F 29.4 in SW 12.3 mph 19.9 mph 98% 0.06 in
16:37 45.9 °F 46.4 °F 29.3 in South 13.6 mph 19.5 mph 98% 0.04 in
16:42 45.9 °F 46.4 °F 29.3 in WSW 10.5 mph 18.6 mph 98% 0.03 in
16:51 46 °F 46.4 °F 29.3 in SSW 12.8 mph 21.9 mph 98% 0.01 in
17:00 46.2 °F 46.4 °F 29.3 in SSW 10.3 mph 22.8 mph 98% 0.01 in
17:07 46.2 °F 46.4 °F 29.3 in WSW 13 mph 22.8 mph 98% 0.01 in
17:13 46.4 °F 46.4 °F 29.3 in SSW 15.9 mph 17.4 mph 98% 0 in
17:18 46.4 °F 46.4 °F 29.3 in SSW 8.5 mph 21.5 mph 98% 0 in
17:23 46.4 °F 46.4 °F 29.3 in SSW 11 mph 21.5 mph 98% 0 in
17:32 46.8 °F 46.4 °F 29.3 in SW 13 mph 19.9 mph 98% 0 in
17:43 46.9 °F 48.2 °F 29.3 in SSW 10.3 mph 15.4 mph 98% 0 in
17:49 47.3 °F 48.2 °F 29.3 in SW 8.7 mph 17.4 mph 98% 0 in
18:01 47.7 °F 48.2 °F 29.3 in SW 10.3 mph 17.4 mph 98% 0.03 in
18:11 47.8 °F 48.2 °F 29.3 in WSW 10.5 mph 16.8 mph 98% 0.09 in
18:19 47.8 °F 48.2 °F 29.3 in SW 6.7 mph 10.5 mph 98% 0.1 in
18:27 47.8 °F 48.2 °F 29.4 in SW 5.8 mph 8.7 mph 98% 0.1 in
18:34 48 °F 48.2 °F 29.4 in WSW 11 mph 11.9 mph 98% 0.1 in
18:42 48.4 °F 48.2 °F 29.3 in WSW 8.1 mph 12.5 mph 98% 0.1 in
18:49 48.6 °F 48.2 °F 29.3 in WSW 8.5 mph 12.8 mph 98% 0.1 in
18:55 48.7 °F 48.2 °F 29.3 in West 7.6 mph 15.2 mph 98% 0.09 in
19:34 48.7 °F 48.2 °F 29.3 in WSW 10.3 mph 17.2 mph 98% 0 in
19:39 48.7 °F 48.2 °F 29.3 in West 7.8 mph 17 mph 98% 0 in
19:48 48.4 °F 48.2 °F 29.3 in West 16.3 mph 16.3 mph 98% 0 in
20:07 48.4 °F 48.2 °F 29.3 in West 10.3 mph 17.2 mph 98% 0.01 in
20:14 48.4 °F 48.2 °F 29.4 in West 15.9 mph 17.2 mph 98% 0.01 in
20:21 48.2 °F 48.2 °F 29.4 in West 11 mph 17.7 mph 98% 0.01 in
20:27 48.2 °F 48.2 °F 29.4 in West 7.8 mph 17.7 mph 98% 0.01 in
20:37 48.4 °F 48.2 °F 29.4 in West 9.8 mph 17.4 mph 98% 0.01 in
20:43 48.4 °F 48.2 °F 29.4 in WSW 14.5 mph 23.3 mph 98% 0.01 in
21:13 48 °F 46.4 °F 29.4 in West 7.8 mph 19.9 mph 93% 0 in
21:37 48 °F 46.4 °F 29.4 in WNW 2.7 mph 16.8 mph 93% 0 in
21:46 47.3 °F 46.4 °F 29.4 in West 8.7 mph 8.7 mph 92% 0 in
21:47 47.3 °F 46.4 °F 29.4 in West 3.8 mph 8.7 mph 92% 0 in
21:48 47.3 °F 46.4 °F 29.4 in NW 2.7 mph 8.7 mph 92% 0 in
21:49 47.3 °F 46.4 °F 29.4 in WNW 2.7 mph 8.7 mph 92% 0 in
21:50 47.3 °F 46.4 °F 29.4 in WSW 2.9 mph 8.7 mph 92% 0 in
21:53 47.3 °F 46.4 °F 29.4 in WNW 3.8 mph 8.7 mph 92% 0 in
21:58 47.3 °F 46.4 °F 29.4 in North 2.5 mph 5.8 mph 92% 0 in
22:02 47.3 °F 46.4 °F 29.4 in Calm   6.5 mph 92% 0 in
22:06 47.3 °F 46.4 °F 29.4 in WSW 5.6 mph 6.5 mph 92% 0 in
22:13 47.3 °F 46.4 °F 29.4 in SW 4.9 mph 5.8 mph 92% 0 in
22:17 47.3 °F 46.4 °F 29.4 in West 8.7 mph 8.7 mph 92% 0 in
22:25 47.3 °F 46.4 °F 29.4 in West 7.8 mph 19.2 mph 92% 0 in
23:01 45.1 °F 42.8 °F 29.4 in WSW 10.5 mph 15.7 mph 92% 0 in
23:08 45 °F 42.8 °F 29.4 in WSW 10.7 mph 17.7 mph 92% 0 in
23:17 45.1 °F 42.8 °F 29.4 in West 13 mph 17 mph 92% 0 in
23:30 44.8 °F 42.8 °F 29.4 in WSW 12.8 mph 15.2 mph 91% 0 in
23:44 44.8 °F 42.8 °F 29.4 in West 13.2 mph 15.7 mph 91% 0 in
23:55 45 °F 42.8 °F 29.4 in West 15.2 mph 17.7 mph 90% 0 in
Données Historique de Météo Turbie

Mise a jour : 24/05/2018 10:22:14
Généré par Cumulus 1.9.4 (1099)